TimeCET,TemperatureF,Dew PointF,Humidity,Sea Level PressureIn,VisibilityMPH,Wind Direction,Wind SpeedMPH,Gust SpeedMPH,PrecipitationIn,Events,Conditions,WindDirDegrees,DateUTC
12:55 AM,17.6,-14.8,23,30.01,-9999.0,SSE,5.8,-,N/A,,Clear,160,2013-03-03 23:55:00
1:55 AM,17.6,-11.2,27,30.01,-9999.0,ESE,6.9,-,N/A,,Clear,120,2013-03-04 00:55:00
2:55 AM,17.6,-14.8,23,30.01,-9999.0,Calm,Calm,-,N/A,,Clear,0,2013-03-04 01:55:00
3:55 AM,17.6,-14.8,23,30.01,-9999.0,Variable,3.5,-,N/A,,Clear,0,2013-03-04 02:55:00
4:00 AM,17,-16,10,,6,,3.5,,,,,,2013-03-04 03:00:00
4:55 AM,15.8,-14.8,25,29.98,-9999.0,WSW,4.6,-,N/A,,Clear,250,2013-03-04 03:55:00
5:55 AM,15.8,-9.4,32,29.98,-9999.0,Variable,1.2,-,N/A,,Clear,0,2013-03-04 04:55:00
6:55 AM,15.8,-9.4,32,29.98,-9999.0,SSW,5.8,-,N/A,,Clear,210,2013-03-04 05:55:00
7:00 AM,15,-10,18,,12,SSW,5.8,,,,,210,2013-03-04 06:00:00
7:55 AM,15.8,-9.4,32,29.98,-9999.0,SSW,8.1,-,N/A,,Clear,210,2013-03-04 06:55:00
8:55 AM,15.8,-7.6,35,30.01,-9999.0,SW,8.1,-,N/A,,Clear,230,2013-03-04 07:55:00
9:55 AM,19.4,-7.6,30,30.01,-9999.0,South,10.4,-,N/A,,Clear,190,2013-03-04 08:55:00
10:55 AM,19.4,-4.0,36,30.04,-9999.0,WSW,5.8,-,N/A,,Clear,240,2013-03-04 09:55:00
11:55 AM,19.4,-0.4,42,30.04,-9999.0,SSW,9.2,-,N/A,,Clear,200,2013-03-04 10:55:00
12:55 PM,19.4,3.2,49,30.04,-9999.0,South,10.4,-,N/A,,Clear,190,2013-03-04 11:55:00
1:00 PM,19,4,36,,37,South,10.4,,,,,190,2013-03-04 12:00:00
1:55 PM,17.6,5.0,58,30.01,-9999.0,ESE,11.5,-,N/A,,Clear,120,2013-03-04 12:55:00
2:55 PM,17.6,5.0,58,30.01,-9999.0,South,12.7,-,N/A,,Clear,190,2013-03-04 13:55:00
3:55 PM,17.6,8.6,68,30.01,-9999.0,SSW,11.5,-,N/A,,Clear,200,2013-03-04 14:55:00
4:00 PM,17,8,55,,31,SSW,11.5,,,,,200,2013-03-04 15:00:00
4:55 PM,17.6,8.6,68,30.01,-9999.0,South,15.0,-,N/A,,Clear,170,2013-03-04 15:55:00
5:55 PM,19.4,-2.2,39,30.01,-9999.0,SE,25.3,-,N/A,,Clear,130,2013-03-04 16:55:00
6:55 PM,17.6,-5.8,35,30.01,-9999.0,SSE,29.9,-,N/A,,Clear,150,2013-03-04 17:55:00
7:00 PM,18,-5,21,,19,SSE,29.9,,,,,150,2013-03-04 18:00:00
7:55 PM,17.6,-5.8,35,30.01,-9999.0,SSE,32.2,-,N/A,,Clear,150,2013-03-04 18:55:00
9:55 PM,17.6,-7.6,32,30.01,-9999.0,SSE,27.6,-,N/A,,Clear,150,2013-03-04 20:55:00
10:00 PM,17,-7,19,,6,SSE,27.6,,,,,150,2013-03-04 21:00:00
10:55 PM,15.8,-7.6,35,30.01,-9999.0,SSE,27.6,-,N/A,,Clear,150,2013-03-04 21:55:00